Simultaneous Nadir Overpasses (SNOs) Predictions

Prediction of SNOs between AQUA and METOP-B Satellite Orbit:

Table of predicted SNOs for the next 14.0 days since TLE Epoch: 12/28/2019
Index Date (AQUA) Time (AQUA) Lat,Lon (AQUA) SZA (AQUA ) Date (METOP-B) Time (METOP-B) Lat,Lon (METOP-B) SZA (METOP-B ) Distance(km) Time Diff (sec)
1 12/28/2019 05:18:49 -73.78, -85.44 82.94 12/28/2019 05:18:22 -73.78, -85.42 82.93 0.60 27
2 12/28/2019 06:08:18 73.83, 82.10 97.12 12/28/2019 06:09:01 73.84, 82.04 97.12 1.93 43
3 12/31/2019 00:03:25 73.03, 174.93 96.13 12/31/2019 00:02:20 73.00, 171.89 96.20 98.51 65
4 12/31/2019 00:53:04 -73.77, -18.96 83.11 12/31/2019 00:52:46 -73.79, -19.01 83.08 2.51 18
5 12/31/2019 01:42:34 73.87, 148.45 97.00 12/31/2019 01:43:25 73.83, 148.44 96.96 3.69 51
6 01/02/2020 19:37:46 73.40,-119.37 96.29 01/02/2020 19:36:36 73.35,-120.93 96.31 49.94 70
7 01/02/2020 20:27:19 -73.81, 47.39 83.28 01/02/2020 20:27:09 -73.79, 47.40 83.30 2.22 10
8 01/02/2020 21:16:48 73.86,-145.10 96.78 01/02/2020 21:17:47 73.88,-145.04 96.79 2.80 59
9 01/05/2020 15:12:07 73.71, -53.60 96.35 01/05/2020 15:10:54 73.65, -53.85 96.30 10.56 73
10 01/05/2020 16:01:34 -73.80, 113.84 83.56 01/05/2020 16:01:33 -73.79, 113.81 83.57 1.90 1
11 01/05/2020 16:51:03 73.86, -78.65 96.50 01/05/2020 16:52:11 73.88, -78.65 96.51 1.65 68
12 01/08/2020 10:46:22 73.71, 12.83 96.02 01/08/2020 10:45:16 73.74, 12.77 96.06 3.24 66
13 01/08/2020 11:35:49 -73.80,-179.71 83.90 01/08/2020 11:35:57 -73.78,-179.79 83.91 2.98 8




NCC Satellite Simultaneous Nadir Overpasses (SNOs) Prediction Service
